Погода в Мильгидуне

Россия / Забайкальский край     52°39′31″N   116°55′17″E
темп.,
°C
ветер,
м/с
пор.,
м/с
влажн.,
%
обл.,
%
осадки,
мм/ч
давл.,
гПа
погр.,
м
15 апреля, чт
чт1500:00−4ссз2253100 0.0 101211
03:00−5ссз1152100 0.0 101110
06:00−5с1151100 0.0 101010
09:00−1с2331100 0.0 1009342
12:00+3сз1422100 0.0 10072603
15:00+4сз2321100 0.0 10063198
18:00+3св2327100 0.0 10071968
21:00−2ссв224371 0.0 101112
16 апреля, пт
пт1600:00−4ссв224820 0.0 101211
03:00−5с22514 0.0 101315
06:00−6с22550 0.0 101518
09:00+1ссз23370 0.0 1016423
12:00+6сз132291 0.0 10152914
15:00+6зсз341780 0.0 10133089
18:00+6зсз34175 0.0 10132594
21:00+1зюз22305 0.0 101410
17 апреля, сб
сб1700:00−1юз11335 0.0 101410
03:00−3ююз22455 0.0 101411
06:00−4ююз22606 0.0 101314
09:00+2ююз244590 0.0 1011377
12:00+9юз45335 0.0 10081035
15:00+12зюз462837 0.0 10051623
18:00+15зюз48225 0.0 10022612
21:00+7з11395 0.0 100410
18 апреля, вс
вс1800:00+4юз114826 0.0 100510
03:00+3зюз005690 0.0 100610
06:00+1сз116549 0.0 100710
09:00+7зюз1147100 0.0 1006188
12:00+13зсз353299 0.0 10041608
15:00+14зсз3629100 0.0 10042479
18:00+13ссз343671 0.0 10041268
21:00+8св375456 0.1 1008247
19 апреля, пн
пн1900:00+5всв41150100 0.0 1010382
03:00+3всв387599 0.2 1011328
06:00+1ссв369273 0.1 1013286
09:00+3св237651 0.1 1014452
12:00+10вюв214922 0.0 1011949
15:00+14ююз22325 0.0 10091554
18:00+14ю333060 0.0 10081390
21:00+8ю22435 0.0 100911